Location: DaVinci Observatory
(43.1080°N, 78.6453°W)
Time: 14:51:46
(UTC-04:00)

Envisat - Pass Details

Date: 07 October 2017
Orbit: 764 x 766 km, 98.2° (Epoch: 17 October)

Event Time Altitude Azimuth Distance (km) Brightness Sun altitude
Exits shadow 21:18:24 62° 233° (SW) 862 3.2 -28.5°
Maximum altitude 21:18:46 64° 258° (WSW) 846 3.3 -28.5°
Drops below altitude 10° 21:23:50 10° 341° (NNW) 2,311 5.9 -29.4°
Sets 21:26:11 0° 344° (NNW) 3,241 6.7 -29.8°
